User: anonymous   Login
Location: Bouillancy
(49.1149°N, 2.9308°E)
Time: 04:46:53
(UTC+00:00)
Language:

Cosmos 2297 Rocket - Orbit

View from above orbital plane
View from above orbital plane
View from above satellite
View from above satellite

Ground track
Ground track

The orbit data is extracted from the following two-line orbital elements,

1 23405U 94077B   20339.54485865 -.00000241  00000-0 -99390-4 0  9996
2 23405  70.9840  72.8270 0004197 234.1378 125.9355 14.15224625344675
Epoch (UTC): 04 December 2020 13:04:35
Eccentricity: 0.0004197
inclination: 70.9840°
perigee height: 838 km
apogee height: 844 km
right ascension of ascending node: 72.8270°
argument of perigee: 234.1378°
revolutions per day: 14.15224625
mean anomaly at epoch: 125.9355°
orbit number at epoch: 34467

The dashed part of the orbit path shows where the satellite is in the earth's shadow,  

DLR